Location: Altleiningen
(49.5078°N, 8.0741°E)
Time: 11:15:05
(UTC+00:00)

Cosmos 1707 Rocket - Pass Details

Date: 03 March 2021
Orbit: 604 x 632 km, 82.5° (Epoch: 13 April)

Event Time Altitude Azimuth Distance (km) Brightness Sun altitude
Rises 17:56:27 0° 347° (NNW) 2,909 7.2 -7.7°
Reaches altitude 10° 17:58:43 10° 344° (NNW) 1,993 6.4 -8.1°
Maximum altitude 18:03:04 61° 264° (W) 701 4.2 -8.8°
Drops below altitude 10° 18:07:20 10° 185° (S) 1,960 6.2 -9.5°
Sets 18:09:33 0° 182° (S) 2,856 7.0 -9.8°
